Tampa, FL

8:03 AM EDT on September 25, 2017 (GMT -0400)
Tampa International

Weather History for KTPA - April, 2013

Change the Weather History Date:

Friday, April 12, 2013

  Actual Average Record
Temperature  
Mean Temperature 76 °F 71 °F  
Max Temperature 79 °F 80 °F 89 °F (1974)
Min Temperature 72 °F 62 °F 46 °F (1973)
Degree Days  
Heating Degree Days 0 0  
Month to date heating degree days 0 9  
Since 1 July heating degree days 400 536  
Cooling Degree Days 11 7  
Month to date cooling degree days 102 71  
Year to date cooling degree days 361 310  
Growing Degree Days 26 (Base 50)    
Moisture  
Dew Point 72 °F    
Average Humidity 88    
Maximum Humidity 94    
Minimum Humidity 82    
Precipitation  
Precipitation T in 0.08 in 2.87 in (1920)
Month to date precipitation 1.14 0.90  
Year to date precipitation 4.76 8.97  
Sea Level Pressure  
Sea Level Pressure 29.89 in    
Wind  
Wind Speed 11 mph (South)    
Max Wind Speed 30 mph    
Max Gust Speed 39 mph    
Visibility 9 miles    
Events      
T = Trace of Precipitation, MM = Missing Value Source: NWS Daily Summary

Daily Weather History Graph

Daily Weather History Graph

Search for Another Location

Airport or City:

Trip Planner

Search our weather history database for the weather conditions in past years. The results will help you decide how hot, cold, wet, or windy it might be!

Date:

Astronomy

Apr. 12, 2013 Rise Set
Actual Time 7:08 AM EDT 7:53 PM EDT
Civil Twilight 6:44 AM EDT 8:17 PM EDT
Nautical Twilight 6:16 AM EDT 8:46 PM EDT
Astronomical Twilight 5:47 AM EDT 9:14 PM EDT
Moon 8:27 AM EDT (4/12) 10:10 PM EDT (4/12)
Length of Visible Light 13h 33m
Length of Day
12h 45m
Waxing Crescent, 5% of the Moon is Illuminated
Apr 12
Waxing Crescent
Apr 18
First Quarter
Apr 25
Full
May 2
Last Quarter
May 9
New

Hourly Weather History & Observations

Time (EDT) Temp. Dew Point Humidity Pressure Visibility Wind Dir Wind Speed Gust Speed Precip Events Conditions
12:53 AM 77.0 °F 71.1 °F 82% 29.90 in 10.0 mi SSE 5.8 mph - N/A   Scattered Clouds
1:53 AM 75.9 °F 72.0 °F 87% 29.90 in 10.0 mi SSE 3.5 mph - N/A   Mostly Cloudy
2:53 AM 75.9 °F 72.0 °F 87% 29.88 in 10.0 mi SE 6.9 mph - N/A   Mostly Cloudy
3:53 AM 75.0 °F 72.0 °F 90% 29.89 in 10.0 mi SE 4.6 mph - N/A   Mostly Cloudy
4:53 AM 75.0 °F 72.0 °F 90% 29.90 in 10.0 mi Variable 4.6 mph - N/A   Overcast
5:53 AM 75.0 °F 72.0 °F 90% 29.88 in 10.0 mi SE 5.8 mph - N/A   Overcast
6:44 AM 75.2 °F 71.6 °F 89% 29.88 in 10.0 mi SE 5.8 mph - N/A   Overcast
6:53 AM 75.0 °F 72.0 °F 90% 29.88 in 10.0 mi SE 8.1 mph - N/A   Overcast
7:04 AM 75.2 °F 71.6 °F 89% 29.88 in 10.0 mi SE 8.1 mph - N/A   Scattered Clouds
7:11 AM 75.2 °F 71.6 °F 89% 29.89 in 10.0 mi SE 5.8 mph - N/A   Mostly Cloudy
7:33 AM 75.2 °F 71.6 °F 89% 29.90 in 9.0 mi SSE 5.8 mph - N/A   Overcast
7:53 AM 75.9 °F 72.0 °F 87% 29.91 in 9.0 mi SSE 6.9 mph - N/A   Overcast
8:53 AM 75.9 °F 73.0 °F 91% 29.91 in 9.0 mi South 9.2 mph - N/A   Overcast
9:53 AM 75.9 °F 73.0 °F 91% 29.91 in 9.0 mi South 12.7 mph - N/A   Overcast
10:53 AM 77.0 °F 73.9 °F 90% 29.92 in 8.0 mi South 10.4 mph - N/A   Overcast
11:09 AM 77.0 °F 73.4 °F 89% 29.93 in 9.0 mi South 10.4 mph - N/A   Overcast
11:47 AM 78.8 °F 73.4 °F 83% 29.93 in 9.0 mi South 13.8 mph - N/A   Overcast
11:53 AM 78.1 °F 73.9 °F 87% 29.93 in 9.0 mi South 12.7 mph - N/A   Overcast
12:53 PM 78.1 °F 73.9 °F 87% 29.92 in 9.0 mi SSW 17.3 mph - N/A   Overcast
1:53 PM 78.1 °F 73.0 °F 84% 29.91 in 9.0 mi SSW 20.7 mph - N/A   Overcast
2:17 PM 78.8 °F 73.4 °F 83% 29.90 in 9.0 mi SSW 18.4 mph 26.5 mph N/A   Overcast
2:53 PM 78.1 °F 73.0 °F 84% 29.88 in 9.0 mi SSW 19.6 mph 27.6 mph N/A   Overcast
3:53 PM 78.1 °F 73.0 °F 84% 29.85 in 9.0 mi South 19.6 mph 27.6 mph N/A   Overcast
4:53 PM 77.0 °F 73.0 °F 88% 29.78 in 8.0 mi South 24.2 mph 39.1 mph 0.00 in   Overcast
5:53 PM 77.0 °F 73.0 °F 88% 29.81 in 9.0 mi South 17.3 mph 29.9 mph N/A   Overcast
6:53 PM 77.0 °F 73.0 °F 88% 29.83 in 8.0 mi South 17.3 mph 25.3 mph N/A   Overcast
7:53 PM 77.0 °F 72.0 °F 84% 29.87 in 10.0 mi WSW 10.4 mph - N/A   Overcast
8:24 PM 75.2 °F 71.6 °F 89% 29.89 in 10.0 mi WNW 10.4 mph - N/A   Overcast
8:51 PM 75.2 °F 69.8 °F 83% 29.89 in 10.0 mi WNW 6.9 mph - N/A   Overcast
8:53 PM 75.0 °F 69.1 °F 82% 29.89 in 10.0 mi WNW 6.9 mph - N/A   Overcast
9:53 PM 73.9 °F 69.1 °F 85% 29.90 in 9.0 mi North 5.8 mph - N/A   Overcast
10:53 PM 73.9 °F 68.0 °F 82% 29.90 in 10.0 mi Variable 3.5 mph - N/A   Overcast
11:53 PM 73.0 °F 68.0 °F 84% 29.92 in 10.0 mi North 5.8 mph - N/A   Overcast